This is the latest recevied weather packets stored in our database for station/object E25WRM. If no packets are shown the sender has not sent any weather packets the latest 10 day(s).
| Time | Temp. | Humidity | Pressure | Rain* | Wind** | Luminosity | Snow |
|---|---|---|---|---|---|---|---|
| 1777292250 | 37.22° C | 47% | 998 hPa | - | - | 0 W/m² | - |
| 1777291340 | 37.22° C | 46% | 998 hPa | - | - | 0 W/m² | - |
| 1777290430 | 37.22° C | 47% | 998 hPa | - | - | 0 W/m² | - |
| 1777289520 | 37.22° C | 47% | 998 hPa | - | - | 0 W/m² | - |
| 1777288610 | 37.22° C | 47% | 998 hPa | - | - | 0 W/m² | - |
| 1777287700 | 36.67° C | 47% | 998 hPa | - | - | 0 W/m² | - |
| 1777286790 | 37.22° C | 47% | 998 hPa | - | - | 0 W/m² | - |
| 1777285880 | 37.22° C | 46% | 998 hPa | - | - | 0 W/m² | - |
| 1777284970 | 37.22° C | 46% | 998 hPa | - | - | 0 W/m² | - |
| 1777284060 | 36.67° C | 47% | 998 hPa | - | - | 0 W/m² | - |
| 1777283150 | 36.11° C | 53% | 998 hPa | - | - | 0 W/m² | - |
| 1777282240 | 36.11° C | 47% | 998 hPa | - | - | 0 W/m² | - |
| 1777281330 | 36.67° C | 53% | 999 hPa | - | - | 0 W/m² | - |
| 1777280420 | 36.11° C | 53% | 999 hPa | - | - | 0 W/m² | - |
| 1777279510 | 36.67° C | 47% | 999 hPa | - | - | 0 W/m² | - |
| 1777278600 | 36.67° C | 50% | 999 hPa | - | - | 0 W/m² | - |
| 1777277690 | 36.67° C | 48% | 999 hPa | - | - | 0 W/m² | - |
| 1777276780 | 37.22° C | 49% | 999 hPa | - | - | 0 W/m² | - |
| 1777275870 | 37.22° C | 47% | 999 hPa | - | - | 0 W/m² | - |
| 1777274960 | 37.78° C | 39% | 1000 hPa | - | - | 0 W/m² | - |
| 1777274050 | 40° C | 38% | 1000 hPa | - | - | 0 W/m² | - |
| 1777273140 | 40° C | 38% | 1000 hPa | - | - | 0 W/m² | - |
| 1777272230 | 39.44° C | 39% | 1001 hPa | - | - | 0 W/m² | - |
| 1777271320 | 38.89° C | 40% | 1001 hPa | - | - | 0 W/m² | - |
| 1777270410 | 37.78° C | 42% | 1001 hPa | - | - | 0 W/m² | - |
* Rain since midnight (hover to see other rain measurements)
** Current wind speed in m/s (hover to see current wind gust speed)